Regional Weather Roundup
Issued by NWS Goodland, KS

Home | Current Version | Previous Version | Text Only | Print | Product List | Glossary Off
Versions: 1 2 3 4 5 6 7 8 9 10 11 12 13 14 15 16 17 18 19 20 21 22 23 24 25 26 27 28 29 30 31 32 33 34 35 36 37 38 39 40 41 42 43 44 45 46 47 48 49 50

000
ASUS43 KGLD 231159
RWRGLD

GOODLAND FORECAST AREA HOURLY WEATHER ROUNDUP
NATIONAL WEATHER SERVICE GOODLAND KS
500 AM MST THU FEB 23 2017

...OFFICIAL OBSERVATIONS...

CITY           SKY/WX    TMP DP  RH WIND       PRES   REMARKS
GOODLAND KS    MOCLDY    33  30  88 NE17G25   29.60F
HILL CITY KS   CLOUDY    42  37  82 E21G31    29.64F
IMPERIAL NEB   CLOUDY    33  31  92 NE18G29   29.67F
MCCOOK NEB     CLOUDY    38  36  92 E23G30    29.68F
AKRON CO       FOG       31  30  96 E18G26    29.61S VSB 1/4 WCI  19
BURLINGTON CO  CLEAR     31  26  82 NE18      29.59F WCI  19
LIMON CO       CLOUDY    18  16  92 NW7       29.59S
$$

...UNOFFICIAL OBSERVATIONS...

CITY           SKY/WX    TMP DP  RH WIND       PRES   REMARKS
LENORA KS        N/A     39  32  76 NE15G23     N/A
NORTON KS      CLOUDY    39  34  81 NE17G24   29.67S
SHARON SPRINGS   N/A     36  28  73 CALM        N/A
TRENTON NEB      N/A     37  32  82 NE12        N/A
KIT CARSON CO    N/A     36  26  66 MISG        N/A
YUMA CO        CLOUDY    32  30  93 NE20      29.62F FOG
$$




USA.gov is the U.S. government's official web portal to all federal, state and local government web resources and services.